Location: Caltech
(34.1382°N, 118.1253°W)
Time: 01:57:08
(UTC-08:00)

Aureole 3 Rocket - Visible Passes

Search period start: 26 November 2014 00:00
Search period end: 06 December 2014 00:00
Orbit: 398 x 1757 km, 82.5° (Epoch: 25 November)

Date Brightness Start Highest point End Pass type
(mag) Time Alt. Az. Time Alt. Az. Time Alt. Az.
26 Nov 5.4 05:55:15 10° SE 05:57:24 17° E 05:59:28 10° NE visible
26 Nov 4.8 17:02:06 10° NNE 17:07:54 39° E 17:15:36 10° SSE visible
26 Nov 6.0 18:49:47 10° NNW 18:55:24 33° W 19:02:41 10° SSW visible
27 Nov 4.7 17:57:44 10° NNW 18:04:05 72° W 18:12:49 10° S visible
28 Nov 4.3 05:59:11 10° SSE 06:01:59 31° E 06:04:44 10° NNE visible
28 Nov 4.6 17:06:26 10° N 17:12:49 55° E 17:21:27 10° SSE visible
28 Nov 6.6 18:55:01 10° NW 19:00:20 25° W 19:06:53 10° SW visible
29 Nov 5.4 18:02:33 10° NNW 18:09:04 54° W 18:17:46 10° SSW visible
30 Nov 2.6 06:03:32 10° S 06:06:33 68° E 06:09:39 10° NNE visible
30 Nov 4.6 17:10:58 10° N 17:17:47 76° E 17:27:00 10° S visible
30 Nov 7.0 19:00:35 10° NW 19:05:13 18° W 19:10:38 10° SW visible
01 Dec 5.6 05:13:51 10° ESE 05:15:21 13° E 05:16:53 10° ENE visible
01 Dec 6.0 18:07:31 10° NNW 18:14:03 40° W 18:22:26 10° SSW visible
02 Dec 2.3 06:08:13 10° SSW 06:11:10 54° W 06:14:19 10° N visible
02 Dec 4.9 17:15:38 10° N 17:22:47 81° W 17:32:17 10° S visible
02 Dec 7.3 19:06:49 10° WNW 19:10:02 13° W 19:13:33 10° WSW visible
03 Dec 4.7 05:17:19 10° SSE 05:19:51 25° E 05:22:32 10° NNE visible
03 Dec 6.6 18:12:40 10° NNW 18:19:00 30° W 18:26:47 10° SW visible
04 Dec 3.2 06:13:13 10° SW 06:15:51 27° WNW 06:18:45 10° NNW visible
04 Dec 5.4 17:20:26 10° NNW 17:27:48 62° W 17:37:18 10° S visible
05 Dec 3.2 05:21:25 10° S 05:24:21 50° E 05:27:39 10° NNE visible
05 Dec 7.0 18:18:04 10° NW 18:23:54 23° W 18:30:45 10° SW visible
